Weather in Vzmorye

Russia / Sakhalin District     47°51′03″N   142°30′55″E
temp.,
°C
wind,
m/s
gust,
m/s
humid.,
%
clouds,
%
prec.,
mm/h
press.,
hPa
HPBL,
m
10 may, mon
mon1023:00+1ene21198100 0.2 1003482
02:00+1nne31198100 0.6 1002569
05:000nne71498100 1.8 1001691
08:000nne71598100 2.8 1002641
11:00+1n61596100 5.6 1002669
14:00+2n81692100 1.3 1003765
17:00+2n81696100 1.9 1004682
20:00+1nne81598100 0.6 1007657
11 may, tue
tue1123:00+1nne71496100 1.3 1010674
02:000nne61392100 0.8 1012649
05:00+1nne51177100 0.9 1013497
08:00+1nne41077100 0.0 1015497
11:00+3nne4870100 0.0 1017549
14:00+3ne3767100 0.0 1017488
17:00+4ene2469100 0.0 1018415
20:00+2ne118153 0.0 102092
12 may, wed
wed1223:00−1sw119047 0.0 102111
02:00−1sw119131 0.0 102212
05:00−2wsw219199 0.0 102219
08:00+2sw11795 0.0 102287
11:00+6se22692 0.0 1022638
14:00+6ese337436 0.0 1021724
17:00+7e11671 0.0 1020502
20:00+5ssw1175100 0.0 102016
13 may, thu
thu1323:00+2sw2281100 0.0 102017
02:00+2ssw2279100 0.0 101825
05:00+3s2278100 0.0 101721
08:00+4ssw3978100 0.1 1016388
11:00+6s3979100 0.3 1014632
14:00+6s4119098 0.6 1013626
17:00+9ssw5127445 0.6 1010467
20:00+7ssw228593 0.0 101038
14 may, fri
fri1423:00+5sw229571 0.0 101133
02:00+4w22963 0.0 101118
05:00+4sw22928 0.0 101025
08:00+7nw23850 0.0 101195
11:00+12nw38600 0.0 1011869
14:00+13nnw27510 0.0 1011727
17:00+12e135537 0.0 1012722
20:00+8s228398 0.0 101355